Location: Huntsville
(41.2590°N, 111.7678°W)
Time: 02:13:35
(UTC+00:00)

Courier 1B Rocket - Pass Details

Date: 19 June 2021
Orbit: 920 x 1202 km, 28.2° (Epoch: 30 July)

Event Time Altitude Azimuth Distance (km) Brightness Sun altitude
Rises 06:23:40 0° 254° (WSW) 3,609 8.0 -23.6°
Reaches altitude 10° 06:27:09 10° 237° (WSW) 2,631 7.1 -23.8°
Enters shadow 06:27:25 11° 235° (SW) 2,568 7.0 -23.8°
Maximum altitude 06:31:16 18° 195° (SSW) 2,074 - -24.0°
Drops below altitude 10° 06:35:21 10° 154° (SSE) 2,600 - -24.2°
Sets 06:38:47 0° 136° (SE) 3,549 - -24.3°
